Weather in Chernod'ye

Russia / Oryol Oblast     52°28′43″N   35°43′25″E
temp.,
°C
wind,
m/s
gust,
m/s
humid.,
%
clouds,
%
prec.,
mm/h
press.,
hPa
HPBL,
m
10 april, sat
sat1000:00+2sw11685 0.0 102710
03:00+2sw11710 0.0 102710
06:00+1s11730 0.0 102810
09:00+5s22580 0.0 1028301
12:00+8sw33415 0.0 10271611
15:00+10sw33375 0.0 10261812
18:00+9sw23455 0.0 102596
21:00+5sw22560 0.0 102710
11 april, sun
sun1100:00+4sw22610 0.0 102812
03:00+3w22630 0.0 102811
06:00+2wsw11640 0.0 102910
09:00+7nnw00520 0.0 1030203
12:00+11ne22410 0.0 1030925
15:00+12ne34375 0.0 10291105
18:00+12ne35465 0.0 1029218
21:00+7ene3661100 0.0 103081
12 april, mon
mon1200:00+6ne3868100 0.0 1030128
03:00+4ne41073100 0.0 1029188
06:00+3ne41174100 0.0 1028242
09:00+6ene5973100 0.0 1027396
12:00+11e4572100 0.0 1025526
15:00+14e4565100 0.0 1024724
18:00+13ene3675100 0.0 1023177
21:00+11ene488690 0.0 1022125
13 april, tue
tue1300:00+11se4107992 0.0 1021155
03:00+10sse41178100 0.0 1022186
06:00+9se41185100 0.0 1021199
09:00+11se51279100 0.0 1021345
12:00+16sse7115880 0.0 10201316
15:00+14sw4772100 0.1 1020555
18:00+14sw2477100 0.0 1019191
21:00+11w1189100 0.0 102015
14 april, wed
wed1400:00+10ssw018899 0.0 102010
03:00+10w1189100 0.0 101910
06:00+9nnw1188100 0.0 101810
09:00+10wnw1186100 0.2 101948
12:00+11nnw118395 0.2 1019190
15:00+14nw0171100 0.3 1018669
18:00+13ene1177100 0.3 101731
21:00+10e118921 0.6 101810